Location: Bydgoszcz
(53.1235°N, 18.0084°E)
Time: 20:47:29
(UTC+02:00)

ISS - Pass Details

Date: 25 April 2026
Orbit: 414 x 424 km, 51.6° (Epoch: 12 May)

Event Time Altitude Azimuth Distance (km) Brightness Sun altitude
Exits shadow 04:45:38 - 242° (WSW) 1,618 -1.5 -6.4°
Reaches altitude 10° 04:45:56 10° 241° (WSW) 1,498 -1.6 -6.3°
Maximum altitude 04:49:12 51° 164° (SSE) 538 -3.3 -5.9°
Drops below altitude 10° 04:52:30 10° 88° (E) 1,509 0.2 -5.5°
Sets 04:54:38 0° 83° (E) 2,377 1.5 -5.2°
